Theta_e
309 309 310 310 310 309 309 309 310 310 310 310 310 310 310 309 309 310 314 315 314 313 315 315 315 316 317 316 316 311 311 313 316 315 314 313 313 312 311 313 311 313 312 312 315
310 310 310 310 310 310 310 311 312 312 312 312 312 312 311 310 310 315 315 314 314 312 315 315 315 315 313 317 315 311 310 313 314 315 316 315 314 313 312 309 310 310 310 312 315
312 312 312 312 313 314 314 314 315 316 315 314 313 312 312 310 314 315 315 314 312 313 316 316 316 315 316 316 317 315 313 314 315 315 314 315 313 313 313 313 311 310 310 310 312
314 313 314 314 315 316 317 318 318 319 319 317 315 313 312 311 312 313 314 310 311 314 316 315 314 315 315 315 315 317 315 315 316 315 314 315 314 313 313 313 311 309 308 308 307
315 315 315 316 317 318 319 321 322 321 320 319 317 314 311 314 312 315 312 311 312 314 314 314 314 314 315 314 313 315 315 315 314 312 312 312 312 312 312 310 308 307 306 304 303
315 315 316 317 319 321 321 322 322 322 321 318 316 312 313 312 314 314 313 311 312 314 314 314 313 312 313 314 313 313 313 312 311 311 311 312 311 312 311 310 308 307 304 303 303
316 316 317 318 320 322 322 323 322 321 319 313 310 311 316 311 314 317 316 312 314 314 313 314 314 314 313 313 313 313 312 310 310 311 311 310 313 312 310 308 307 305 302 302 301
316 317 318 320 322 322 322 323 322 321 313 310 309 314 308 311 314 315 315 315 314 314 314 314 314 313 313 312 311 313 311 312 312 312 312 311 312 311 309 309 307 302 301 301 301
317 318 319 321 322 323 323 322 321 318 311 311 315 315 311 309 311 313 313 313 313 312 312 313 313 312 311 310 309 310 310 311 312 312 312 311 311 310 309 310 304 302 302 301 300
317 318 320 322 323 323 323 321 318 314 316 313 314 313 310 309 310 310 311 312 311 310 310 311 308 309 307 308 309 311 312 312 313 313 312 312 310 309 309 308 305 302 301 300 300
318 319 321 323 324 323 322 319 317 317 317 315 313 311 310 310 310 310 311 311 311 310 309 310 309 308 308 309 308 311 311 312 311 311 312 311 311 310 309 309 304 303 302 301 300
319 322 323 323 324 323 322 316 315 314 319 316 315 314 311 310 312 309 310 310 311 310 310 310 310 309 309 309 310 310 312 312 311 310 312 311 311 310 309 307 305 304 302 301 299
321 321 322 322 323 324 321 316 316 313 316 316 315 318 312 311 314 312 308 308 310 309 310 311 313 311 311 311 312 312 312 312 313 311 310 312 311 312 306 305 305 303 301 300 298
320 321 321 322 323 322 317 317 315 313 317 318 315 310 309 310 313 307 308 309 310 311 309 310 310 312 312 314 313 315 311 312 312 311 313 311 312 311 309 306 304 302 299 298 296
320 321 322 323 322 320 318 317 315 312 325 316 311 309 307 312 308 307 307 309 312 312 311 314 313 312 313 313 311 314 310 311 311 310 311 310 310 309 307 308 305 301 299 297 296
321 322 323 323 322 321 317 317 314 321 328 315 308 310 308 308 308 307 307 307 308 311 310 310 308 309 310 309 310 309 310 309 308 309 312 311 311 312 309 309 304 301 299 297 296
322 323 323 323 322 321 318 317 324 327 321 315 311 310 310 309 308 309 308 308 309 311 312 312 310 310 309 310 309 308 311 315 314 312 315 312 312 312 306 306 304 301 298 296 295
323 323 323 323 322 320 318 323 327 324 321 313 310 309 311 309 309 309 308 309 307 311 311 316 318 310 308 310 311 309 312 314 314 314 313 310 313 311 302 301 300 299 297 296 295
323 321 318 320 319 318 322 326 325 324 321 317 318 319 318 313 312 310 309 310 312 308 316 314 316 309 309 310 311 312 314 312 313 299 309 312 310 305 302 300 298 297 297 295 295
318 317 317 319 316 317 324 325 322 320 317 318 321 318 318 319 317 313 314 312 315 309 311 313 316 312 310 310 309 311 311 315 311 311 311 311 312 312 304 301 299 298 297 295 293
317 317 313 316 315 319 325 322 320 316 316 317 319 320 317 316 317 315 316 314 310 310 311 312 314 313 311 312 312 311 311 312 312 309 309 307 309 306 305 302 300 298 297 294 293
311 317 312 314 318 317 319 318 314 314 314 315 315 315 315 315 316 315 316 314 308 309 313 312 313 310 313 309 307 309 310 310 310 309 308 310 311 305 304 300 299 297 296 294 293
312 311 310 312 319 317 315 316 314 313 314 316 316 315 314 315 317 314 315 310 310 311 313 312 311 303 306 307 310 310 310 309 309 306 305 310 309 302 301 300 298 298 295 294 292
308 311 311 312 311 316 317 316 317 314 314 313 314 312 313 313 312 313 312 310 309 311 310 311 309 308 313 304 307 306 305 304 306 303 303 308 305 303 301 301 300 299 296 293 292
306 309 309 312 313 313 314 315 316 313 313 312 311 312 313 313 312 312 309 310 308 309 308 309 313 307 306 307 306 306 306 303 305 303 303 301 299 300 299 297 296 294 294 296 294
305 304 304 306 311 313 313 312 313 314 312 311 311 311 310 312 311 310 310 309 308 307 307 304 302 303 299 301 303 303 303 302 302 302 301 302 302 300 295 294 293 290 291 296 292
298 298 302 305 306 310 311 310 311 310 306 307 309 308 310 310 303 300 300 301 303 305 304 303 298 296 299 296 295 292 295 298 298 297 297 296 295 291 294 293 291 290 289 288 287
Wind_Speed
1 1 2 2 3 4 5 6 6 8 8 9 10 11 12 14 15 11 5 2 1 3 5 6 3 3 3 3 3 3 4 1 2 2 3 4 5 4 3 2 3 4 3 4 5
3 3 3 4 4 5 6 6 7 8 9 10 10 11 12 14 15 8 3 4 3 6 8 7 2 2 3 2 3 4 3 5 2 1 2 4 1 3 5 8 4 4 6 4 3
3 3 3 3 4 4 5 6 8 9 10 10 10 10 10 11 4 2 1 4 5 10 5 4 1 3 1 1 2 3 4 3 4 3 1 3 5 2 2 6 8 9 7 6 4
5 4 4 4 4 5 5 8 9 11 11 11 10 9 7 4 3 0 2 5 8 12 4 3 2 4 2 3 3 2 6 5 4 1 2 2 4 8 4 9 6 8 7 6 9
6 5 5 4 4 5 6 8 11 13 13 12 10 6 3 1 7 1 1 6 9 10 2 2 3 4 3 2 1 4 3 3 6 9 4 3 7 5 10 12 8 7 10 10 10
8 7 6 5 5 5 7 9 12 14 14 11 8 4 2 4 3 2 3 6 7 9 2 4 3 4 2 2 2 1 3 6 7 9 5 5 2 4 8 1 10 8 10 9 12
10 8 8 7 5 6 9 11 13 14 13 10 6 4 1 9 3 1 3 5 6 4 3 1 3 2 2 2 2 1 5 7 6 3 5 6 2 6 11 6 6 8 9 10 13
11 10 9 7 6 7 9 12 14 14 10 8 3 4 6 2 4 3 4 3 5 4 3 3 3 4 2 0 6 1 2 3 4 2 2 3 7 6 9 5 8 9 7 8 10
13 11 10 7 6 8 10 14 15 8 2 3 1 1 6 3 3 5 4 4 6 5 4 3 2 2 4 4 4 3 3 4 8 2 2 2 6 8 10 4 7 7 7 8 9
14 12 10 8 6 8 11 13 7 2 2 1 0 2 1 3 4 4 5 10 4 4 4 4 5 3 3 3 5 5 4 4 5 3 1 5 10 9 12 4 8 7 7 8 10
15 13 10 8 6 7 10 4 2 1 3 8 5 3 4 5 5 3 5 6 4 4 4 0 4 7 12 11 4 4 4 5 4 8 3 7 4 11 9 2 8 7 8 9 10
16 12 10 9 8 7 7 1 1 1 6 9 6 5 3 7 3 2 8 5 3 5 5 4 6 14 3 5 7 5 4 6 6 6 1 7 8 11 6 4 5 10 8 8 7
16 15 13 11 10 9 7 4 3 1 1 6 4 4 3 8 4 5 9 4 4 6 8 8 7 5 6 5 5 5 6 5 8 4 2 2 7 6 4 9 12 10 9 8 7
19 18 15 11 5 6 4 8 5 3 1 5 4 2 2 5 2 1 5 4 2 10 6 5 7 5 3 3 5 5 6 6 5 3 4 1 5 6 4 6 7 7 7 6 7
23 20 18 18 3 5 5 10 7 1 5 2 2 2 2 5 6 1 2 2 4 4 6 6 2 4 6 8 8 8 3 3 0 2 1 3 2 6 7 4 5 6 7 6 5
28 25 21 18 17 6 12 10 4 4 8 3 3 5 4 2 2 3 2 2 1 1 1 6 2 3 6 2 4 3 3 5 4 3 2 6 7 4 3 3 7 6 7 6 5
32 29 29 27 10 18 15 6 2 6 3 6 5 5 5 5 3 4 5 5 6 6 6 3 5 3 2 3 2 4 5 3 3 1 6 3 3 6 5 3 13 15 9 7 6
37 34 36 31 18 28 13 3 10 8 7 3 5 6 7 7 5 6 6 3 6 2 3 5 3 9 5 6 7 6 8 5 7 4 5 4 5 3 4 6 12 10 9 8 7
39 33 17 28 28 30 6 7 7 6 7 8 3 4 4 4 5 4 7 5 8 12 8 6 5 2 2 3 6 4 3 1 4 2 3 4 1 2 3 5 6 8 7 7 7
24 15 9 31 32 19 7 11 6 4 5 5 9 6 7 6 7 7 8 4 4 7 2 5 2 4 2 3 3 4 6 2 2 1 5 4 5 5 8 9 7 8 8 8 8
19 4 10 31 26 4 9 6 4 5 5 5 6 6 6 6 8 6 5 3 6 5 4 4 2 1 3 5 8 2 3 2 3 5 5 2 6 3 8 12 14 10 9 9 9
3 4 18 29 3 2 5 7 1 4 1 2 4 5 7 7 6 7 11 8 8 7 8 3 4 4 6 2 4 1 6 6 4 5 3 3 8 1 7 11 8 9 9 8 5
3 2 10 1 5 5 1 4 6 7 6 5 5 6 4 7 3 6 4 2 5 8 9 7 2 2 6 4 1 4 3 4 5 3 5 4 6 0 3 4 7 7 7 7 7
4 3 2 2 2 10 9 7 9 6 3 4 5 5 5 7 6 4 4 2 3 3 2 6 5 7 11 5 4 3 4 3 4 3 3 9 5 8 7 7 6 7 8 8 9
1 4 3 5 8 8 11 8 11 8 7 10 5 12 10 7 5 7 4 1 3 1 1 4 6 3 3 4 3 4 8 8 8 6 8 15 9 15 5 6 7 7 4 5 7
1 2 1 1 4 14 14 10 14 14 8 4 9 12 8 11 8 7 7 5 5 3 4 1 2 3 3 1 5 6 13 6 10 13 10 15 19 12 8 2 2 5 5 6 7
5 2 1 6 3 5 6 6 11 9 2 3 11 7 9 11 5 4 4 3 4 8 6 5 6 3 6 3 3 7 9 15 13 9 8 11 13 1 5 6 6 7 5 6 5
Wind_Direction
248 282 305 317 319 322 321 322 324 327 328 326 325 323 323 321 319 310 259 244 180 185 152 151 114 58 21 23 23 86 60 216 238 53 298 344 18 329 311 349 339 303 192 264 330
265 284 299 307 312 318 323 327 329 330 328 324 323 321 323 323 322 284 253 203 217 188 159 148 119 97 23 3 5 82 109 225 216 151 303 301 42 304 355 325 299 280 300 283 322
260 282 292 306 320 326 329 330 331 329 325 320 317 314 319 325 336 270 202 210 190 173 164 153 63 141 87 105 203 154 192 226 214 200 217 268 306 276 80 306 254 277 287 305 255
264 272 283 292 303 318 329 333 329 326 320 314 309 307 310 323 294 328 206 170 169 176 171 174 121 123 157 203 191 151 246 223 274 312 35 275 324 313 207 241 261 287 276 298 319
257 261 266 277 295 313 322 327 328 325 320 312 301 293 279 321 253 272 163 170 174 182 182 157 140 155 194 208 319 190 262 281 283 289 241 223 253 239 273 268 290 298 45 35 41
246 250 252 257 276 299 316 321 322 323 320 311 298 254 161 223 221 226 204 179 182 180 177 177 189 197 210 242 165 151 259 267 274 268 261 229 306 142 273 237 309 20 74 49 44
240 238 246 258 276 304 316 317 319 319 317 310 285 186 177 242 215 201 182 178 174 179 156 145 211 149 131 304 281 256 319 323 273 253 220 157 258 218 250 321 324 66 93 64 45
235 234 238 250 271 295 308 311 314 313 320 311 224 156 239 236 207 212 177 157 176 164 135 97 121 124 163 126 2 337 45 342 288 207 91 116 264 268 285 303 52 84 81 73 54
232 232 235 245 270 300 306 310 309 298 304 82 108 149 268 165 182 181 181 144 126 106 104 126 86 125 54 91 355 348 216 205 308 277 136 124 253 271 296 265 77 108 84 68 49
227 228 232 239 268 301 311 313 309 260 210 222 314 346 227 217 157 156 155 147 112 94 45 64 52 81 42 109 220 209 215 234 224 272 130 222 249 268 277 25 137 117 95 75 62
225 224 230 243 262 299 318 322 343 331 196 194 193 226 135 133 137 137 151 131 98 74 155 147 109 204 210 203 184 185 189 226 269 263 211 257 264 277 260 91 130 118 92 78 63
221 218 221 242 261 276 296 226 237 207 305 240 237 266 168 175 116 226 164 142 148 186 124 61 214 230 186 166 219 252 255 252 268 260 241 282 279 272 359 38 132 124 104 93 72
213 219 224 234 258 266 223 217 185 140 248 292 202 184 185 164 208 203 155 154 166 172 194 175 217 186 181 212 185 216 198 221 231 317 266 329 300 287 50 80 81 73 88 87 91
217 218 221 228 255 206 212 185 170 157 327 257 219 222 112 135 207 106 181 161 220 206 176 232 259 187 174 215 163 264 207 207 221 125 228 102 273 292 159 113 80 79 71 74 76
218 215 219 200 193 184 175 161 152 139 288 249 157 130 138 152 136 20 101 82 197 200 128 236 224 160 220 228 163 230 162 166 201 188 50 279 322 256 117 159 134 118 112 98 87
217 213 210 207 225 197 160 146 131 64 242 213 132 168 131 156 153 120 120 54 160 191 236 232 294 188 200 77 154 142 83 49 49 89 302 229 179 272 195 223 140 123 117 119 110
220 212 209 206 207 191 160 135 110 218 261 194 186 165 180 168 175 164 163 179 163 136 214 226 216 219 164 114 36 105 80 312 329 358 231 173 132 242 306 288 156 147 139 131 127
220 216 210 200 189 177 154 114 220 187 207 164 152 139 180 160 209 181 142 211 238 243 121 175 275 170 181 201 186 183 161 171 222 207 241 331 243 289 9 61 109 127 139 146 142
221 212 182 182 178 173 165 193 209 183 182 160 74 145 221 200 153 150 200 209 205 182 187 174 264 107 173 166 145 200 180 203 100 33 31 218 74 102 103 91 123 146 150 158 155
184 162 168 179 172 166 195 224 195 203 155 149 172 161 183 200 158 173 195 210 209 195 167 218 212 201 188 113 60 141 163 81 13 193 248 279 260 201 197 184 188 181 180 182 178
161 137 168 174 161 177 210 196 206 217 153 163 188 168 198 173 200 196 213 213 176 179 136 149 137 203 105 201 177 135 204 194 162 158 186 234 256 229 175 182 196 200 197 192 195
188 141 175 162 162 169 180 158 221 184 161 148 128 176 186 175 210 208 213 203 167 157 159 174 149 184 193 328 327 227 194 172 170 244 232 182 256 30 164 187 185 202 203 204 186
125 111 194 261 179 208 141 195 190 176 179 167 200 200 171 176 238 217 210 4 171 165 165 180 170 23 349 350 24 220 200 136 102 82 223 197 257 335 158 154 210 207 218 209 187
117 131 157 225 112 193 177 201 203 202 198 156 181 174 150 189 213 217 184 231 8 172 144 132 170 178 230 186 150 197 177 153 143 138 213 233 291 247 214 218 232 250 232 210 196
315 170 198 191 199 185 184 190 195 194 209 198 213 203 187 201 195 215 152 121 15 128 62 162 202 166 201 144 183 217 235 170 198 204 210 263 228 257 261 212 236 227 233 201 191
108 128 139 110 154 184 181 197 199 198 167 210 219 192 179 209 182 192 164 177 193 175 171 2 207 126 286 200 206 245 256 191 220 244 243 252 268 270 286 183 169 213 213 209 205
111 343 320 151 138 166 206 191 196 165 203 221 212 159 201 214 119 85 60 74 163 162 179 157 135 109 256 38 62 310 237 226 237 215 221 232 243 210 259 240 223 219 200 202 196